Home   Weather   Homberg (Efze)   Past weeks

Flag for Germany Past Weather in Homberg (Efze), Hesse, Germany — Yesterday and Last 2 Weeks

Now
53 °F

Overcast.


Feels Like: 49 °F
Forecast: 36 / 47 °F
Wind: 10 mph from Southwest

Location: Fritzlar

Current Time: Nov 24, 2017 at 10:37:16 am

Latest Report: Nov 24, 2017 at 9:00 am


Visibility: 16 mi

Pressure: 29.74 "Hg

Humidity: 78%

Dew Point: 46 °F

Location of Homberg (Efze)Location

Past Weather in Homberg (Efze) — Graph

°F

Homberg (Efze) Temperature Yesterday

Maximum temperature yesterday: 55 °F (at 2:00 pm)
Minimum temperature yesterday: 39 °F (at 12:00 am)
Average temperature yesterday: 50 °F

High & Low Weather Summary for the Past Weeks

 TemperatureHumidityPressure
High55 °F (Nov 23, 2:00 pm)97% (Nov 17, 8:00 pm)30.34 "Hg (Nov 17, 8:00 pm)
Low31 °F (Nov 14, 12:00 am)62% (Nov 13, 3:00 pm)29.50 "Hg (Nov 12, 2:00 pm)
Average42 °F86%30.02 "Hg
* Reported Nov 9 9:00 am — Nov 24 9:00 am, Homberg (Efze). Weather by CustomWeather, © 2017

Note: Actual official high and low records may vary slightly from our data, if they occured in-between our weather recording intervals... More about our weather records

Advertising

Homberg (Efze) Weather History for the Previous 24 Hours

Scroll right to see more
 ConditionsComfort  
Time TempWeatherWind HumidityBarometerVisibility
9:00 am
Fri, Nov 24
53 °FOvercast.10 mph78%29.74 "Hg16 mi
8:00 am53 °FOvercast.8 mph78%29.74 "Hg11 mi
6:00 am51 °FOvercast.6 mph90%29.77 "Hg9 mi
5:00 am48 °FOvercast.3 mph95%29.80 "Hg6 mi
3:00 am49 °FLight rain. Overcast.2 mph93%29.85 "Hg6 mi
2:00 am50 °FLight rain. Overcast.2 mph92%29.85 "Hg3 mi
12:00 am51 °FOvercast.3 mph91%29.85 "Hg9 mi
11:00 pm
Thu, Nov 23
52 °FPassing clouds.6 mph88%29.83 "Hg9 mi
9:00 pm54 °FPassing clouds.7 mph73%29.81 "Hg19 mi
8:00 pm53 °FPassing clouds.7 mph75%29.80 "Hg19 mi
6:00 pm55 °FOvercast.8 mph67%29.77 "Hg19 mi
5:00 pm55 °FOvercast.7 mph65%29.76 "Hg25 mi
3:00 pm55 °FOvercast.7 mph66%29.72 "Hg25 mi
2:00 pm55 °FPartly sunny.12 mph62%29.70 "Hg25 mi
12:00 pm52 °FPassing clouds.12 mph64%29.68 "Hg19 mi
11:00 am50 °FPartly sunny.10 mph66%29.70 "Hg16 mi
Weather by CustomWeather, © 2017

See weather overview